Saint Ignace, MI

9:32 AM EST on February 19, 2017 (GMT -0500)
Mackinac Island

Weather History for KMCD - November, 2011

Change the Weather History Date:

Tuesday, November 8, 2011

  Actual Average Record
Temperature  
Mean Temperature 38 °F -  
Max Temperature 41 °F 42 °F 60 °F (1975)
Min Temperature 35 °F 32 °F 13 °F (1976)
Degree Days  
Heating Degree Days 27    
Moisture  
Dew Point 36 °F    
Average Humidity 92    
Maximum Humidity 100    
Minimum Humidity 81    
Precipitation  
Precipitation 0.24 in - - ()
Sea Level Pressure  
Sea Level Pressure 30.18 in    
Wind  
Wind Speed 1 mph (ENE)    
Max Wind Speed 5 mph    
Max Gust Speed -    
Visibility 9 miles    
Events Rain    
Averages and records for this station are not official NWS values.
T = Trace of Precipitation, MM = Missing Value Source: NWS Daily Summary

Daily Weather History Graph

Daily Weather History Graph

Search for Another Location

Airport or City:

Trip Planner

Search our weather history database for the weather conditions in past years. The results will help you decide how hot, cold, wet, or windy it might be!

Date:

Astronomy

Nov. 08, 2011 Rise Set
Actual Time 7:28 AM EST 5:15 PM EST
Civil Twilight 6:56 AM EST 5:47 PM EST
Nautical Twilight 6:21 AM EST 6:22 PM EST
Astronomical Twilight 5:46 AM EST 6:57 PM EST
Moon 3:57 PM EST (11/8) 5:22 AM EST (11/8)
Length of Visible Light 10h 50m
Length of Day
9h 47m
Waxing Gibbous, 96% of the Moon is Illuminated
Nov 8
Waxing Gibbous
Nov 10
Full
Nov 18
Last Quarter
Nov 25
New
Dec 2
First Quarter

Hourly Weather History & Observations

Time (EST) Temp. Windchill Dew Point Humidity Pressure Visibility Wind Dir Wind Speed Gust Speed Precip Events Conditions
12:14 AM 37.4 °F 34.9 °F 33.8 °F 87% 30.19 in 10.0 mi North 3.5 mph - N/A   Clear
12:34 AM 37.4 °F 34.9 °F 33.8 °F 87% 30.18 in 10.0 mi North 3.5 mph - N/A   Clear
12:53 AM 37.4 °F 34.9 °F 33.8 °F 87% 30.17 in 10.0 mi North 3.5 mph - N/A   Clear
1:14 AM 37.4 °F - 33.8 °F 87% 30.18 in 10.0 mi Calm Calm - N/A   Clear
1:34 AM 37.4 °F - 33.8 °F 87% 30.17 in 10.0 mi Calm Calm - N/A   Clear
1:53 AM 37.4 °F - 33.8 °F 87% 30.17 in 10.0 mi Calm Calm - N/A   Clear
2:14 AM 37.4 °F - 33.8 °F 87% 30.18 in 10.0 mi Calm Calm - N/A   Clear
2:34 AM 37.4 °F - 33.8 °F 87% 30.19 in 10.0 mi Calm Calm - N/A   Clear
2:53 AM 37.4 °F - 33.8 °F 87% 30.19 in 10.0 mi Calm Calm - N/A   Clear
3:34 AM 35.6 °F - 33.8 °F 93% 30.19 in 10.0 mi Calm Calm - N/A   Mostly Cloudy
4:14 AM 37.4 °F - 33.8 °F 87% 30.19 in 10.0 mi Calm Calm - N/A   Scattered Clouds
4:34 AM 37.4 °F - 33.8 °F 87% 30.20 in 10.0 mi Calm Calm - N/A   Scattered Clouds
4:53 AM 37.4 °F - 35.6 °F 93% 30.21 in 10.0 mi Calm Calm - N/A   Overcast
5:14 AM 37.4 °F - 35.6 °F 93% 30.21 in 10.0 mi Calm Calm - N/A   Overcast
5:34 AM 37.4 °F - 35.6 °F 93% 30.21 in 10.0 mi Calm Calm - N/A   Overcast
5:53 AM 37.4 °F - 35.6 °F 93% 30.20 in 10.0 mi Calm Calm - N/A   Overcast
6:14 AM 37.4 °F - 35.6 °F 93% 30.21 in 10.0 mi Calm Calm - N/A   Overcast
6:34 AM 37.4 °F - 35.6 °F 93% 30.21 in 10.0 mi Calm Calm - N/A   Overcast
6:54 AM 41.0 °F - 35.6 °F 81% 30.20 in 10.0 mi Calm Calm - N/A   Overcast
7:14 AM 41.0 °F - 35.6 °F 81% 30.21 in 10.0 mi Calm Calm - N/A   Overcast
7:34 AM 41.0 °F - 35.6 °F 81% 30.21 in 10.0 mi Calm Calm - N/A   Overcast
7:54 AM 41.0 °F 39.0 °F 35.6 °F 81% 30.21 in 10.0 mi SSE 3.5 mph - N/A   Overcast
8:14 AM 41.0 °F - 37.4 °F 87% 30.20 in 10.0 mi Calm Calm - N/A   Overcast
8:34 AM 41.0 °F - 37.4 °F 87% 30.20 in 10.0 mi Calm Calm - N/A   Overcast
8:54 AM 41.0 °F 39.0 °F 37.4 °F 87% 30.21 in 10.0 mi SSE 3.5 mph - N/A   Overcast
9:14 AM 41.0 °F 39.0 °F 37.4 °F 87% 30.20 in 10.0 mi SSE 3.5 mph - N/A   Overcast
9:33 AM 41.0 °F - 37.4 °F 87% 30.21 in 10.0 mi Calm Calm - N/A   Overcast
9:54 AM 41.0 °F 39.0 °F 37.4 °F 87% 30.21 in 10.0 mi SSE 3.5 mph - N/A   Overcast
10:14 AM 41.0 °F - 37.4 °F 87% 30.21 in 10.0 mi Calm Calm - N/A Rain Light Rain
10:33 AM 41.0 °F - 37.4 °F 87% 30.21 in 7.0 mi Calm Calm - N/A   Overcast
10:54 AM 41.0 °F 39.0 °F 37.4 °F 87% 30.20 in 5.0 mi SSE 3.5 mph - 0.01 in   Overcast
11:13 AM 41.0 °F - 37.4 °F 87% 30.20 in 10.0 mi Calm Calm - 0.01 in Rain Light Rain
11:34 AM 41.0 °F - 37.4 °F 87% 30.20 in 10.0 mi Calm Calm - 0.02 in Rain Light Rain
11:59 AM 39.2 °F - 37.4 °F 93% 30.20 in 10.0 mi Calm Calm - 0.03 in Rain Light Rain
12:13 PM 39.2 °F - 37.4 °F 93% 30.20 in 7.0 mi Calm Calm - 0.01 in Rain Light Rain
12:34 PM 39.2 °F - 37.4 °F 93% 30.19 in 7.0 mi Calm Calm - 0.02 in   Overcast
12:54 PM 39.2 °F - 37.4 °F 93% 30.19 in 5.0 mi Calm Calm - 0.03 in Rain Light Rain
1:13 PM 39.2 °F - 37.4 °F 93% 30.18 in 7.0 mi Calm Calm - 0.01 in Rain Light Rain
1:34 PM 39.2 °F - 37.4 °F 93% 30.17 in 5.0 mi Calm Calm - 0.01 in   Overcast
1:54 PM 39.2 °F - 37.4 °F 93% 30.16 in 10.0 mi Calm Calm - 0.02 in Rain Light Rain
1:59 PM 39.2 °F - 37.4 °F 93% 30.16 in 10.0 mi Calm Calm - 0.03 in Rain Light Rain
2:14 PM 39.2 °F 37.0 °F 37.4 °F 93% 30.16 in 7.0 mi ENE 3.5 mph - N/A Rain Light Rain
2:34 PM 37.4 °F - 37.4 °F 100% 30.15 in 10.0 mi Calm Calm - 0.01 in Rain Light Rain
2:54 PM 37.4 °F - 37.4 °F 100% 30.15 in 10.0 mi Calm Calm - 0.02 in Rain Light Rain
2:59 PM 37.4 °F - 37.4 °F 100% 30.15 in 10.0 mi Calm Calm - 0.02 in Rain Light Rain
3:14 PM 37.4 °F - 35.6 °F 93% 30.14 in 5.0 mi Calm Calm - 0.01 in   Overcast
3:34 PM 37.4 °F - 37.4 °F 100% 30.13 in 10.0 mi Calm Calm - 0.02 in Rain Rain
3:59 PM 37.4 °F 34.9 °F 37.4 °F 100% 30.14 in 10.0 mi NE 3.5 mph - 0.03 in Rain Light Rain
4:14 PM 37.4 °F 33.8 °F 37.4 °F 100% 30.14 in 5.0 mi ENE 4.6 mph - 0.01 in Rain Light Rain
4:34 PM 37.4 °F 34.9 °F 37.4 °F 100% 30.14 in 7.0 mi ENE 3.5 mph - 0.02 in   Drizzle
4:54 PM 37.4 °F 33.8 °F 35.6 °F 93% 30.15 in 10.0 mi ENE 4.6 mph - 0.03 in   Light Drizzle
4:58 PM 37.4 °F 34.9 °F 35.6 °F 93% 30.15 in 7.0 mi ENE 3.5 mph - 0.03 in Rain Light Rain
5:14 PM 37.4 °F - 37.4 °F 100% 30.15 in 5.0 mi Calm Calm - 0.01 in Rain Light Rain
5:33 PM 37.4 °F 33.8 °F 37.4 °F 100% 30.15 in 10.0 mi East 4.6 mph - 0.02 in Rain Light Rain
5:54 PM 37.4 °F - 37.4 °F 100% 30.15 in 10.0 mi Calm Calm - 0.03 in Rain Light Rain
5:59 PM 37.4 °F 33.8 °F 37.4 °F 100% 30.16 in 10.0 mi ENE 4.6 mph - 0.03 in Rain Light Rain
6:14 PM 37.4 °F - 37.4 °F 100% 30.16 in 10.0 mi Calm Calm - 0.01 in Rain Light Rain
6:33 PM 37.4 °F 34.9 °F 37.4 °F 100% 30.16 in 10.0 mi ENE 3.5 mph - 0.02 in Rain Light Rain
6:54 PM 37.4 °F 33.8 °F 37.4 °F 100% 30.17 in 10.0 mi ENE 4.6 mph - 0.02 in Rain Light Rain
6:59 PM 37.4 °F - 37.4 °F 100% 30.17 in 10.0 mi Calm Calm - 0.03 in Rain Light Rain
7:13 PM 37.4 °F 33.8 °F 35.6 °F 93% 30.17 in 10.0 mi ENE 4.6 mph - N/A   Overcast
7:34 PM 37.4 °F 32.1 °F 35.6 °F 93% 30.17 in 10.0 mi ENE 6.9 mph - 0.01 in   Overcast
7:54 PM 37.4 °F 32.8 °F 35.6 °F 93% 30.15 in 10.0 mi ENE 5.8 mph - 0.02 in   Overcast
7:59 PM 37.4 °F 32.8 °F 35.6 °F 93% 30.15 in 10.0 mi ENE 5.8 mph - 0.02 in   Overcast
8:13 PM 37.4 °F 33.8 °F 35.6 °F 93% 30.14 in 10.0 mi ENE 4.6 mph - 0.01 in   Overcast
8:34 PM 37.4 °F 33.8 °F 35.6 °F 93% 30.14 in 10.0 mi NE 4.6 mph - 0.02 in   Overcast
8:54 PM 37.4 °F 34.9 °F 35.6 °F 93% 30.14 in 10.0 mi NE 3.5 mph - 0.02 in   Overcast
8:59 PM 37.4 °F 33.8 °F 35.6 °F 93% 30.14 in 10.0 mi ENE 4.6 mph - 0.02 in   Overcast
9:13 PM 37.4 °F 34.9 °F 35.6 °F 93% 30.13 in 10.0 mi NE 3.5 mph - 0.01 in   Overcast
9:34 PM 37.4 °F - 35.6 °F 93% 30.14 in 10.0 mi Calm Calm - 0.01 in   Overcast
9:59 PM 37.4 °F 32.8 °F 37.4 °F 100% 30.14 in 10.0 mi NE 5.8 mph - 0.02 in   Overcast
10:14 PM 37.4 °F 33.8 °F 37.4 °F 100% 30.13 in 10.0 mi ENE 4.6 mph - N/A   Overcast
10:34 PM 37.4 °F 34.9 °F 35.6 °F 93% 30.12 in 10.0 mi ENE 3.5 mph - 0.01 in   Overcast
10:53 PM 37.4 °F 33.8 °F 35.6 °F 93% 30.11 in 10.0 mi ENE 4.6 mph - 0.01 in   Overcast
10:59 PM 37.4 °F 32.8 °F 35.6 °F 93% 30.11 in 10.0 mi ENE 5.8 mph - 0.01 in   Overcast
11:14 PM 37.4 °F 33.8 °F 35.6 °F 93% 30.11 in 10.0 mi NE 4.6 mph - 0.01 in   Overcast
11:33 PM 37.4 °F 32.8 °F 35.6 °F 93% 30.11 in 10.0 mi NE 5.8 mph - 0.01 in   Overcast
11:54 PM 37.4 °F 32.8 °F 37.4 °F 100% 30.10 in 10.0 mi ENE 5.8 mph - 0.01 in   Overcast
11:59 PM 37.4 °F 32.8 °F 35.6 °F 93% 30.09 in 10.0 mi ENE 5.8 mph - 0.01 in   Overcast